San Luis Obispo, CA

7:19 AM PDT on March 24, 2017 (GMT -0700)
San Luis Obispo County-McChesney

Weather History for KSBP - June, 2013

Change the Weather History Date:

Sunday, June 16, 2013

  Actual Average Record
Temperature  
Mean Temperature 66 °F -  
Max Temperature 78 °F 76 °F 101 °F (1981)
Min Temperature 53 °F 51 °F 43 °F (1991)
Growing Degree Days 16 (Base 50)    
Moisture  
Dew Point 51 °F    
Average Humidity 63    
Maximum Humidity 83    
Minimum Humidity 39    
Precipitation  
Precipitation 0.00 in - - ()
Sea Level Pressure  
Sea Level Pressure 30.01 in    
Wind  
Wind Speed 9 mph (NW)    
Max Wind Speed 22 mph    
Max Gust Speed -    
Visibility 10 miles    
Events      
Averages and records for this station are not official NWS values.
T = Trace of Precipitation, MM = Missing Value Source: NWS Daily Summary

Daily Weather History Graph

Daily Weather History Graph

Search for Another Location

Airport or City:

Trip Planner

Search our weather history database for the weather conditions in past years. The results will help you decide how hot, cold, wet, or windy it might be!

Date:

Astronomy

Jun. 16, 2013 Rise Set
Actual Time 5:47 AM PDT 8:19 PM PDT
Civil Twilight 5:17 AM PDT 8:49 PM PDT
Nautical Twilight 4:40 AM PDT 9:26 PM PDT
Astronomical Twilight 3:59 AM PDT 10:06 PM PDT
Moon 1:13 PM PDT (6/16) 12:41 AM PDT (6/16)
Length of Visible Light 15h 31m
Length of Day
14h 31m
Waxing Crescent, 51% of the Moon is Illuminated
Jun 16
Waxing Crescent
Jun 23
Full
Jun 29
Last Quarter
Jul 8
New
Jul 15
First Quarter

Hourly Weather History & Observations

Time (PDT) Temp. Dew Point Humidity Pressure Visibility Wind Dir Wind Speed Gust Speed Precip Events Conditions
12:56 AM 54.0 °F 48.9 °F 83% 30.01 in 10.0 mi NNW 8.1 mph - N/A   Overcast
1:56 AM 54.0 °F 48.9 °F 83% 30.00 in 10.0 mi NW 6.9 mph - N/A   Overcast
2:15 AM 53.6 °F 48.2 °F 82% 30.00 in - North - - N/A   Unknown
2:56 AM - - N/A% 30.00 in - North - - N/A   Unknown
3:56 AM - - N/A% 30.00 in - North - - N/A   Unknown
4:56 AM - - N/A% 30.01 in - North - - N/A   Unknown
5:56 AM - - N/A% 30.02 in - North - - N/A   Unknown
6:06 AM - - N/A% 30.02 in 5.0 mi Calm Calm - N/A   Overcast
6:56 AM - - N/A% 30.02 in 7.0 mi Calm Calm - N/A   Scattered Clouds
7:56 AM - - N/A% 30.03 in 10.0 mi Calm Calm - N/A   Clear
8:56 AM - - N/A% 30.05 in 10.0 mi Calm Calm - N/A   Clear
9:56 AM - - N/A% 30.03 in 10.0 mi WNW 11.5 mph - N/A   Clear
10:56 AM - - N/A% 30.02 in 10.0 mi West 11.5 mph - N/A   Clear
11:56 AM - - N/A% 30.01 in 10.0 mi NW 17.3 mph - N/A   Clear
12:56 PM 73.9 °F 51.1 °F 45% 30.00 in 10.0 mi NW 21.9 mph - N/A   Clear
1:56 PM 78.1 °F 51.1 °F 39% 29.99 in 10.0 mi NW 17.3 mph - N/A   Clear
2:56 PM 75.0 °F 51.1 °F 43% 30.00 in 10.0 mi NW 18.4 mph - N/A   Clear
3:56 PM 73.9 °F 51.1 °F 45% 29.99 in 10.0 mi WNW 15.0 mph - N/A   Clear
4:56 PM 72.0 °F 51.1 °F 48% 29.98 in 10.0 mi WNW 13.8 mph - N/A   Clear
5:56 PM 69.1 °F 52.0 °F 54% 29.97 in 10.0 mi NNW 15.0 mph - N/A   Clear
6:56 PM 64.9 °F 51.1 °F 61% 29.97 in 10.0 mi NW 13.8 mph - N/A   Clear
7:56 PM 62.1 °F 51.1 °F 67% 29.98 in 10.0 mi NW 12.7 mph - N/A   Clear
8:56 PM 60.1 °F 51.1 °F 72% 29.99 in 10.0 mi WNW 8.1 mph - N/A   Clear
9:56 PM 59.0 °F 51.1 °F 75% 30.01 in 10.0 mi WNW 5.8 mph - N/A   Clear
10:56 PM 57.0 °F 50.0 °F 77% 30.02 in 10.0 mi NW 4.6 mph - N/A   Clear
11:56 PM 57.0 °F 50.0 °F 77% 30.02 in 10.0 mi West 4.6 mph - N/A   Clear